DAL44 KBOS-MMUN

Flight info

Callsign DAL44
Flight time N/A
Altitude 40000
Route SSOXS7 SSOXS Q167 RIFLE DCT HEADI Q97 KALDA Q131 WAALT Y289 BAHAA DCT SAXXN Y262 LULLS Y196 CANOA UB879 NOSAT NOSAT1D
Aircraft A339/H-SADE1E2E3GHIJ3J5M1P2RWXY/LB2D1

Departure

Time N/A
Airport Boston Logan International Airport (KBOS)

Arrival

Time 2026-05-05 02:03
Airport Cancún International Airport (MMUN)
Time Latitude Longitude Altitude Speed Heading
2026-05-05 01:26 25.47727 -80.55409 39968 ft 411 kts 244°
2026-05-05 01:26 25.41530 -80.65844 39950 ft 412 kts 244°
2026-05-05 01:27 25.28897 -80.87067 40041 ft 411 kts 243°
2026-05-05 01:27 25.16250 -81.08241 40027 ft 413 kts 244°
2026-05-05 01:28 25.03535 -81.29415 40003 ft 414 kts 244°
2026-05-05 01:28 24.90595 -81.50653 40033 ft 419 kts 240°
2026-05-05 01:29 24.82296 -81.59950 39979 ft 430 kts 232°
2026-05-05 01:29 24.73673 -81.69092 39944 ft 431 kts 232°
2026-05-05 01:29 24.56492 -81.87235 39985 ft 432 kts 232°
2026-05-05 01:30 24.48386 -81.96797 40029 ft 419 kts 243°
2026-05-05 01:30 24.42953 -82.07904 40050 ft 410 kts 251°
2026-05-05 01:30 24.33020 -82.30528 39968 ft 412 kts 251°
2026-05-05 01:31 24.23018 -82.53203 39973 ft 414 kts 251°
2026-05-05 01:31 24.12951 -82.75928 40054 ft 414 kts 251°
2026-05-05 01:32 24.02796 -82.98720 40011 ft 418 kts 250°
2026-05-05 01:32 23.96802 -83.09738 39981 ft 429 kts 240°
2026-05-05 01:32 23.89677 -83.20166 39954 ft 429 kts 240°
2026-05-05 01:33 23.75550 -83.40891 39981 ft 429 kts 240°
2026-05-05 01:33 23.61259 -83.61768 40016 ft 428 kts 240°
2026-05-05 01:34 23.46931 -83.82592 39948 ft 431 kts 240°
2026-05-05 01:34 23.32555 -84.03411 40052 ft 429 kts 240°
2026-05-05 01:35 23.18110 -84.24236 40034 ft 430 kts 240°
2026-05-05 01:35 23.06313 -84.41180 39988 ft 433 kts 240°
2026-05-05 01:36 23.02673 -84.46397 39987 ft 434 kts 240°
2026-05-05 01:36 22.96623 -84.55056 39990 ft 434 kts 239°
2026-05-05 01:37 22.89308 -84.65508 39994 ft 435 kts 239°
2026-05-05 01:37 22.81977 -84.75961 39982 ft 436 kts 239°
2026-05-05 01:38 22.74611 -84.86443 39989 ft 437 kts 239°
2026-05-05 01:38 22.67250 -84.96901 39990 ft 436 kts 239°
2026-05-05 01:39 22.59885 -85.07338 39978 ft 437 kts 239°
2026-05-05 01:39 22.52578 -85.17851 39984 ft 437 kts 239°
2026-05-05 01:40 22.45294 -85.28299 39985 ft 438 kts 239°
2026-05-05 01:40 22.37952 -85.38810 39975 ft 437 kts 239°
2026-05-05 01:41 22.32502 -85.46593 39751 ft 437 kts 239°
2026-05-05 01:41 22.30661 -85.49221 39128 ft 441 kts 239°
2026-05-05 01:41 22.28795 -85.51890 37940 ft 451 kts 239°
2026-05-05 01:42 22.26806 -85.54735 36341 ft 460 kts 238°
2026-05-05 01:42 22.22871 -85.60346 32622 ft 477 kts 238°
2026-05-05 01:42 22.18834 -85.66107 28966 ft 482 kts 238°
2026-05-05 01:42 22.14863 -85.71761 27146 ft 459 kts 238°
2026-05-05 01:43 22.11109 -85.77104 26572 ft 440 kts 238°
2026-05-05 01:43 22.07436 -85.82357 25596 ft 448 kts 238°
2026-05-05 01:43 22.03672 -85.87718 24025 ft 441 kts 237°
2026-05-05 01:43 22.00069 -85.92825 22619 ft 411 kts 237°
2026-05-05 01:44 21.96723 -85.97514 21679 ft 380 kts 234°
2026-05-05 01:44 21.92780 -86.01510 21372 ft 394 kts 225°
2026-05-05 01:44 21.88689 -86.05334 20986 ft 387 kts 226°
2026-05-05 01:44 21.84646 -86.09145 20467 ft 382 kts 225°
2026-05-05 01:45 21.80665 -86.12894 19953 ft 378 kts 225°
2026-05-05 01:45 21.76744 -86.16580 19162 ft 370 kts 225°
2026-05-05 01:45 21.72911 -86.20183 17911 ft 363 kts 225°
2026-05-05 01:45 21.69180 -86.23682 17106 ft 342 kts 225°
2026-05-05 01:46 21.65754 -86.26887 16593 ft 316 kts 225°
2026-05-05 01:46 21.62465 -86.29985 15481 ft 314 kts 225°
2026-05-05 01:46 21.59233 -86.33018 14536 ft 305 kts 225°
2026-05-05 01:46 21.56069 -86.35987 13515 ft 300 kts 224°
2026-05-05 01:47 21.52933 -86.38916 12316 ft 297 kts 222°
2026-05-05 01:47 21.49508 -86.41408 11300 ft 300 kts 216°
2026-05-05 01:47 21.46061 -86.43858 11081 ft 295 kts 217°
2026-05-05 01:47 21.43758 -86.45506 10470 ft 293 kts 216°
2026-05-05 01:48 21.42081 -86.46705 10373 ft 294 kts 216°
2026-05-05 01:48 21.40373 -86.47929 10274 ft 295 kts 216°
2026-05-05 01:48 21.38668 -86.49148 10182 ft 294 kts 216°
2026-05-05 01:48 21.36966 -86.50364 10095 ft 294 kts 216°
2026-05-05 01:49 21.35262 -86.51580 10019 ft 294 kts 216°
2026-05-05 01:49 21.33561 -86.52796 10008 ft 294 kts 216°
2026-05-05 01:49 21.31859 -86.54013 10009 ft 294 kts 216°
2026-05-05 01:49 21.30157 -86.55231 10010 ft 294 kts 216°
2026-05-05 01:50 21.28456 -86.56446 10010 ft 294 kts 216°
2026-05-05 01:50 21.26754 -86.57662 10008 ft 294 kts 216°
2026-05-05 01:50 21.25049 -86.58880 10010 ft 294 kts 216°
2026-05-05 01:50 21.23343 -86.60098 10010 ft 294 kts 216°
2026-05-05 01:51 21.21640 -86.61314 10009 ft 294 kts 216°
2026-05-05 01:51 21.19938 -86.62529 10011 ft 294 kts 216°
2026-05-05 01:51 21.18253 -86.63731 10013 ft 294 kts 216°
2026-05-05 01:51 21.16549 -86.64947 10014 ft 294 kts 216°
2026-05-05 01:52 21.14853 -86.66155 9990 ft 288 kts 216°
2026-05-05 01:52 21.13230 -86.67310 9871 ft 272 kts 216°
2026-05-05 01:52 21.11694 -86.68401 9459 ft 262 kts 216°
2026-05-05 01:52 21.10178 -86.69487 8883 ft 261 kts 216°
2026-05-05 01:53 21.08676 -86.70582 8421 ft 257 kts 218°
2026-05-05 01:53 21.07537 -86.71992 8134 ft 251 kts 245°
2026-05-05 01:53 21.07153 -86.73799 8087 ft 250 kts 272°
2026-05-05 01:53 21.07570 -86.75584 7780 ft 250 kts 298°
2026-05-05 01:54 21.08561 -86.77114 7311 ft 250 kts 310°
2026-05-05 01:54 21.10362 -86.79406 6844 ft 248 kts 309°
2026-05-05 01:54 21.12660 -86.82755 6184 ft 244 kts 304°
2026-05-05 01:54 21.13600 -86.84278 6094 ft 245 kts 303°
2026-05-05 01:55 21.14535 -86.85802 5889 ft 245 kts 303°
2026-05-05 01:55 21.15482 -86.87338 5441 ft 248 kts 303°
2026-05-05 01:55 21.16422 -86.88851 5285 ft 242 kts 303°
2026-05-05 01:55 21.17370 -86.90379 5232 ft 246 kts 303°
2026-05-05 01:56 21.18319 -86.91907 4990 ft 246 kts 303°
2026-05-05 01:56 21.19266 -86.93427 4430 ft 246 kts 303°
2026-05-05 01:56 21.20220 -86.94958 3835 ft 248 kts 303°
2026-05-05 01:56 21.21157 -86.96463 3558 ft 239 kts 303°
2026-05-05 01:57 21.22080 -86.97949 3428 ft 236 kts 303°
2026-05-05 01:57 21.22857 -86.99438 3298 ft 223 kts 287°
2026-05-05 01:57 21.22953 -87.01044 3096 ft 212 kts 255°
2026-05-05 01:57 21.22269 -87.02438 3028 ft 216 kts 225°
2026-05-05 01:58 21.21077 -87.03363 3011 ft 211 kts 209°
2026-05-05 01:58 21.19829 -87.04209 3011 ft 212 kts 211°
2026-05-05 01:58 21.18619 -87.05058 2997 ft 202 kts 206°
2026-05-05 01:58 21.17287 -87.05334 2916 ft 198 kts 169°
2026-05-05 01:59 21.16062 -87.04708 2840 ft 196 kts 139°
2026-05-05 01:59 21.15152 -87.03619 2765 ft 197 kts 126°
2026-05-05 01:59 21.14391 -87.02424 2684 ft 196 kts 123°
2026-05-05 01:59 21.13625 -87.01213 2602 ft 196 kts 124°
2026-05-05 02:00 21.12870 -87.00003 2490 ft 196 kts 124°
2026-05-05 02:00 21.12118 -86.98803 2277 ft 190 kts 124°
2026-05-05 02:00 21.11413 -86.97670 2057 ft 176 kts 124°
2026-05-05 02:00 21.10758 -86.96620 1833 ft 164 kts 124°
2026-05-05 02:01 21.10133 -86.95618 1638 ft 163 kts 124°
2026-05-05 02:01 21.09512 -86.94627 1422 ft 153 kts 124°
2026-05-05 02:01 21.08950 -86.93725 1243 ft 141 kts 124°
2026-05-05 02:01 21.08394 -86.92844 1065 ft 140 kts 124°
2026-05-05 02:02 21.07850 -86.91969 888 ft 141 kts 123°
2026-05-05 02:02 21.07319 -86.91106 659 ft 152 kts 123°
2026-05-05 02:02 21.06699 -86.90103 457 ft 158 kts 123°
2026-05-05 02:02 21.06132 -86.89191 244 ft 140 kts 122°
2026-05-05 02:03 21.05595 -86.88333 99 ft 142 kts 122°
2026-05-05 02:03 21.05060 -86.87479 44 ft 130 kts 122°
2026-05-05 02:03 21.04682 -86.86865 38 ft 62 kts 124°
2026-05-05 02:03 21.04470 -86.86535 38 ft 41 kts 124°
2026-05-05 02:04 21.04307 -86.86396 37 ft 15 kts 149°
2026-05-05 02:04 21.04252 -86.86365 40 ft 6 kts 153°
2026-05-05 02:04 21.04220 -86.86347 42 ft 3 kts 154°
2026-05-05 02:04 21.04219 -86.86347 42 ft 0 kts 154°
2026-05-05 02:05 21.04218 -86.86347 43 ft 1 kts 154°
2026-05-05 02:05 21.04164 -86.86341 45 ft 14 kts 197°
2026-05-05 02:05 21.04185 -86.86411 45 ft 21 kts 302°
2026-05-05 02:05 21.04304 -86.86597 31 ft 33 kts 303°
2026-05-05 02:06 21.04423 -86.86789 29 ft 34 kts 304°
2026-05-05 02:06 21.04550 -86.86994 30 ft 32 kts 304°
2026-05-05 02:06 21.04675 -86.87195 31 ft 32 kts 304°
2026-05-05 02:06 21.04802 -86.87396 32 ft 33 kts 304°
2026-05-05 02:07 21.04929 -86.87598 33 ft 33 kts 304°
2026-05-05 02:07 21.05045 -86.87784 34 ft 23 kts 304°
2026-05-05 02:07 21.05126 -86.87911 35 ft 21 kts 304°
2026-05-05 02:07 21.05206 -86.88038 36 ft 15 kts 302°
2026-05-05 02:08 21.05186 -86.88113 35 ft 10 kts 219°
2026-05-05 02:08 21.05107 -86.88173 35 ft 17 kts 212°
2026-05-05 02:08 21.05040 -86.88218 35 ft 1 kts 212°
2026-05-05 02:08 21.05018 -86.88220 35 ft 3 kts 175°
2026-05-05 02:09 21.04960 -86.88207 35 ft 1 kts 161°
2026-05-05 02:09 21.04944 -86.88200 35 ft 4 kts 159°
2026-05-05 02:09 21.04931 -86.88194 35 ft 2 kts 158°
2026-05-05 02:09 21.04924 -86.88192 35 ft 0 kts 159°